This is the latest recevied weather packets stored in our database for station/object VK6WB. If no packets are shown the sender has not sent any weather packets the latest 10 day(s).
| Time | Temp. | Humidity | Pressure | Rain* | Wind** | Luminosity | Snow |
|---|---|---|---|---|---|---|---|
| 1778178604 | 15.56° C | 56% | 1024.6 hPa | 0 mm | - | 944 W/m² | - |
| 1778178005 | 15.56° C | 56% | 1024.6 hPa | 0 mm | - | 1254 W/m² | - |
| 1778177405 | 15.56° C | 56% | 1024.5 hPa | 0 mm | - | 1461 W/m² | - |
| 1778176805 | 16.11° C | 54% | 1024.5 hPa | 0 mm | - | 1202 W/m² | - |
| 1778176205 | 16.11° C | 55% | 1024.4 hPa | 0 mm | - | 995 W/m² | - |
| 1778175605 | 16.11° C | 54% | 1024.3 hPa | 0 mm | - | 685 W/m² | - |
| 1778175006 | 16.11° C | 54% | 1024.5 hPa | 0 mm | - | 116 W/m² | - |
| 1778174405 | 16.11° C | 54% | 1024.4 hPa | 0 mm | - | 116 W/m² | - |
| 1778173806 | 16.11° C | 53% | 1024.3 hPa | 0 mm | - | 116 W/m² | - |
| 1778173205 | 16.11° C | 54% | 1024.3 hPa | 0 mm | - | 116 W/m² | - |
| 1778172605 | 16.11° C | 54% | 1024.5 hPa | 0 mm | - | 116 W/m² | - |
| 1778172006 | 16.11° C | 55% | 1024.5 hPa | 0 mm | - | 116 W/m² | - |
| 1778171405 | 16.11° C | 55% | 1024.4 hPa | 0 mm | - | 167 W/m² | - |
| 1778170805 | 16.11° C | 54% | 1024.5 hPa | 0 mm | - | 219 W/m² | - |
| 1778170206 | 16.11° C | 54% | 1024.5 hPa | 0 mm | - | 271 W/m² | - |
| 1778169606 | 16.11° C | 53% | 1024.4 hPa | 0 mm | - | 271 W/m² | - |
| 1778169005 | 16.67° C | 53% | 1024.4 hPa | 0 mm | - | 219 W/m² | - |
| 1778168405 | 16.67° C | 52% | 1024.3 hPa | 0 mm | - | 219 W/m² | - |
| 1778167805 | 16.67° C | 51% | 1024.1 hPa | 0 mm | - | 322 W/m² | - |
| 1778167206 | 16.67° C | 51% | 1024.3 hPa | 0 mm | - | 426 W/m² | - |
| 1778166605 | 16.67° C | 50% | 1024.1 hPa | 0 mm | - | 426 W/m² | - |
| 1778166005 | 17.22° C | 50% | 1024.3 hPa | 0 mm | - | 322 W/m² | - |
| 1778165405 | 17.22° C | 49% | 1024.3 hPa | 0 mm | - | 271 W/m² | - |
| 1778164805 | 17.22° C | 48% | 1024.3 hPa | 0 mm | - | 219 W/m² | - |
| 1778164204 | 17.22° C | 47% | 1024.3 hPa | 0 mm | - | 271 W/m² | - |
* Rain latest hour (hover to see other rain measurements)
** Current wind speed in m/s (hover to see current wind gust speed)